FW3611 Weather Reports


Display with metric or nautical units.
time (UTC)temp
F
wind
direction
speed
MPH
gust
MPH
rain 1hr
in
rain 24hr
in
rain mn
in
humidity
%
barometer
mb
20210625060837 69 136 0.0 0.0 0.00 0.73 0.00 77 1021.1
20210625060335 69 136 0.0 0.0 0.00 0.73 0.00 77 1021.1
20210625055834 69 136 0.0 0.0 0.00 0.73 0.00 77 1021.1
20210625055331 69 136 0.0 0.0 0.00 0.73 0.00 76 1021.1
20210625054830 69 136 0.0 0.0 0.00 0.73 0.00 76 1021.1
20210625054334 69 136 0.0 0.0 0.00 0.73 0.00 76 1021.2
20210625053831 69 136 0.0 0.0 0.00 0.73 0.00 76 1021.3
20210625053331 69 136 0.0 0.0 0.00 0.73 0.00 76 1021.4
20210625052830 69 136 0.0 0.0 0.00 0.73 0.00 76 1021.4
20210625052331 69 136 0.0 0.0 0.00 0.73 0.00 75 1021.4
20210625051838 69 137 0.0 0.0 0.00 0.73 0.00 75 1021.5
20210625051338 70 137 0.0 0.0 0.00 0.73 0.00 75 1021.6
20210625050836 70 137 0.0 0.0 0.00 0.73 0.00 75 1021.7
20210625050329 70 137 0.0 0.0 0.00 0.73 0.00 75 1021.8
20210625045828 70 137 0.0 0.0 0.00 0.73 0.00 75 1021.7
20210625045329 70 137 0.0 0.0 0.00 0.73 0.00 75 1021.6
20210625044829 70 137 0.0 0.0 0.00 0.73 0.00 75 1021.6
20210625044333 70 137 0.0 0.0 0.00 0.73 0.00 75 1021.7
20210625043831 70 137 0.0 0.0 0.00 0.73 0.00 75 1021.8
20210625043328 70 137 0.0 0.0 0.00 0.73 0.00 75 1021.8
20210625042826 70 137 0.0 0.0 0.00 0.73 0.00 75 1021.9
20210625042325 70 137 0.0 0.0 0.00 0.73 0.00 74 1021.9
20210625041823 70 137 0.0 0.0 0.00 0.73 0.00 74 1021.9
20210625041330 70 137 0.0 0.0 0.00 0.73 0.00 75 1021.8
20210625040827 70 137 0.0 0.0 0.00 0.73 0.00 75 1021.8
20210625040323 70 137 0.0 0.0 0.00 0.73 0.00 75 1021.7
20210625035825 70 137 0.0 0.0 0.00 0.73 0.73 74 1021.8
20210625035324 70 137 0.0 0.0 0.00 0.73 0.73 74 1021.8
20210625034821 70 137 0.0 0.0 0.00 0.73 0.73 74 1021.9
20210625034318 70 137 0.0 0.0 0.00 0.73 0.73 74 1021.9
20210625033821 70 137 0.0 0.0 0.00 0.73 0.73 74 1022.0
20210625033322 70 137 0.0 0.0 0.00 0.73 0.73 74 1022.0
20210625032817 71 137 0.0 0.0 0.00 0.73 0.73 74 1022.0
20210625032314 71 137 0.0 0.0 0.00 0.73 0.73 74 1022.0
20210625031817 71 137 0.0 0.0 0.00 0.73 0.73 74 1022.0
20210625031313 71 137 0.0 0.0 0.00 0.73 0.73 74 1022.2
20210625030813 71 137 0.0 0.0 0.00 0.73 0.73 74 1022.2
20210625030313 71 137 0.0 0.0 0.00 0.73 0.73 74 1022.2
20210625025816 71 137 0.0 0.0 0.00 0.73 0.73 74 1022.1
20210625025315 72 137 0.0 0.0 0.00 0.73 0.73 74 1022.2
20210625024803 72 137 0.0 0.0 0.00 0.73 0.73 73 1022.1
20210625024303 72 137 0.0 0.0 0.00 0.73 0.73 73 1022.0
20210625023809 73 137 0.0 0.0 0.00 0.73 0.73 73 1022.1
20210625023312 73 137 0.0 0.0 0.00 0.73 0.73 73 1022.0
20210625022803 73 137 0.0 0.0 0.00 0.73 0.73 72 1022.0
20210625022305 74 137 0.0 0.0 0.00 0.73 0.73 72 1021.9
20210625021801 74 137 0.0 0.0 0.00 0.73 0.73 71 1021.8
20210625021303 74 137 0.0 2.0 0.00 0.73 0.73 71 1021.8
20210625020807 74 137 0.0 2.0 0.00 0.73 0.73 70 1021.7
20210625020302 74 136 0.0 2.0 0.00 0.73 0.73 70 1021.7
20210625015803 74 135 1.0 2.0 0.00 0.73 0.73 70 1021.6
20210625015305 75 135 0.0 2.0 0.00 0.73 0.73 70 1021.4
20210625014803 75 135 0.0 3.0 0.00 0.73 0.73 70 1021.4
20210625014301 75 135 1.0 3.0 0.00 0.73 0.73 70 1021.4
20210625013755 75 135 1.0 5.0 0.00 0.73 0.73 69 1021.3
20210625013250 75 133 0.0 5.0 0.00 0.73 0.73 69 1021.2
20210625012749 75 137 0.0 2.0 0.00 0.73 0.73 69 1021.2
20210625012245 75 137 0.0 2.0 0.00 0.73 0.73 69 1021.2
20210625011757 76 137 0.0 2.0 0.00 0.73 0.73 68 1021.3
20210625011249 76 137 0.0 3.0 0.00 0.73 0.73 68 1021.3
20210625010747 76 137 0.0 3.0 0.00 0.73 0.73 68 1021.3
20210625010243 76 144 0.0 3.0 0.00 0.73 0.73 67 1021.2
20210625005747 76 144 1.0 4.0 0.00 0.73 0.73 67 1021.3
20210625005239 76 144 1.0 4.0 0.00 0.73 0.73 67 1021.4
20210625004740 76 145 1.0 3.0 0.00 0.73 0.73 66 1021.4
20210625004239 76 145 1.0 3.0 0.00 0.73 0.73 66 1021.4
20210625003737 77 127 1.0 3.0 0.00 0.73 0.73 66 1021.4
20210625003234 77 110 0.0 3.0 0.00 0.73 0.73 66 1021.4
20210625002731 77 18 1.0 3.0 0.00 0.73 0.73 66 1021.4
20210625002232 77 142 2.0 4.0 0.00 0.73 0.73 65 1021.4
20210625001735 78 142 1.0 4.0 0.00 0.73 0.73 64 1021.2
20210625001232 78 114 1.0 6.0 0.00 0.73 0.73 64 1021.1
20210625000727 78 120 1.0 6.0 0.00 0.73 0.73 63 1021.0
20210625000219 79 93 1.0 7.0 0.00 0.73 0.73 63 1021.0
20210624235714 79 104 2.0 7.0 0.00 0.73 0.73 62 1020.8
20210624235206 79 77 2.0 7.0 0.00 0.73 0.73 61 1020.8
20210624234705 80 131 1.0 4.0 0.00 0.73 0.73 62 1020.8
20210624234208 80 85 2.0 8.0 0.00 0.73 0.73 63 1020.7
20210624233706 80 65 3.0 8.0 0.00 0.73 0.73 61 1020.6
20210624233211 80 111 3.0 9.0 0.00 0.73 0.73 61 1020.6
20210624232707 80 86 3.0 9.0 0.00 0.73 0.73 62 1020.6
20210624232206 80 75 3.0 7.0 0.00 0.73 0.73 61 1020.6
20210624231709 81 45 3.0 11.0 0.00 0.73 0.73 61 1020.6
20210624231207 80 84 5.0 11.0 0.00 0.73 0.73 61 1020.6
20210624230703 80 61 5.0 10.0 0.00 0.73 0.73 60 1020.5
20210624230204 81 125 4.0 10.0 0.00 0.73 0.73 60 1020.6
20210624225706 81 93 3.0 10.0 0.00 0.73 0.73 60 1020.6
20210624225204 81 73 4.0 12.0 0.00 0.73 0.73 61 1020.7
20210624224703 81 88 5.0 12.0 0.00 0.73 0.73 60 1020.7
20210624224200 81 90 4.0 9.0 0.00 0.73 0.73 60 1020.5
20210624223700 81 45 4.0 9.0 0.00 0.73 0.73 59 1020.6
20210624223202 82 77 4.0 9.0 0.00 0.73 0.73 60 1020.5
20210624222700 81 93 5.0 9.0 0.00 0.73 0.73 60 1020.5
20210624222201 81 158 4.0 10.0 0.00 0.73 0.73 59 1020.4
20210624221658 82 143 4.0 11.0 0.00 0.73 0.73 59 1020.4
20210624221157 82 59 4.0 11.0 0.00 0.73 0.73 60 1020.4
20210624220658 82 119 4.0 11.0 0.00 0.73 0.73 59 1020.4
20210624220200 82 64 4.0 11.0 0.00 0.73 0.73 59 1020.3
20210624215659 82 43 5.0 11.0 0.00 0.73 0.73 60 1020.3
20210624215156 81 335 4.0 10.0 0.00 0.73 0.73 60 1020.4
20210624214656 81 215 4.0 10.0 0.00 0.73 0.73 62 1020.4
20210624214156 81 63 4.0 9.0 0.00 0.73 0.73 63 1020.5
20210624213656 81 356 4.0 9.0 0.00 0.73 0.73 63 1020.6
20210624213154 81 68 3.0 9.0 0.00 0.73 0.73 62 1020.7
20210624212649 80 39 4.0 11.0 0.00 0.73 0.73 63 1020.8
20210624212150 80 138 4.0 11.0 0.00 0.73 0.73 61 1020.9
20210624211648 81 91 3.0 11.0 0.00 0.73 0.73 62 1021.0
20210624211147 81 72 4.0 9.0 0.00 0.73 0.73 64 1021.1
20210624210651 80 65 4.0 10.0 0.00 0.73 0.73 63 1021.1
20210624210147 81 81 4.0 10.0 0.00 0.73 0.73 61 1021.2
20210624205647 81 108 5.0 12.0 0.00 0.73 0.73 62 1021.2
20210624205148 81 93 5.0 12.0 0.00 0.73 0.73 62 1021.0
20210624204648 81 54 4.0 11.0 0.00 0.73 0.73 65 1021.1
20210624204150 80 123 4.0 11.0 0.00 0.73 0.73 62 1021.3
20210624203650 80 80 5.0 14.0 0.00 0.73 0.73 63 1021.4
20210624203145 80 79 5.0 14.0 0.00 0.73 0.73 64 1021.5
20210624202648 81 64 4.0 10.0 0.00 0.73 0.73 63 1021.4
20210624202146 80 58 4.0 10.0 0.00 0.73 0.73 64 1021.4
20210624201649 80 50 4.0 9.0 0.00 0.73 0.73 64 1021.4
20210624201150 80 64 5.0 13.0 0.00 0.73 0.73 62 1021.3
20210624200645 80 19 6.0 13.0 0.00 0.73 0.73 62 1021.3
20210624200145 80 43 5.0 12.0 0.00 0.73 0.73 61 1021.2
20210624195646 80 93 5.0 11.0 0.00 0.73 0.73 62 1021.4
20210624195154 80 104 4.0 11.0 0.00 0.73 0.73 61 1021.2
20210624194646 80 37 5.0 12.0 0.00 0.73 0.73 62 1021.0
20210624194144 80 66 5.0 12.0 0.00 0.73 0.73 64 1021.0
20210624193645 81 53 5.0 16.0 0.00 0.73 0.73 64 1021.0
20210624193144 80 66 7.0 16.0 0.00 0.73 0.73 64 1020.9
20210624192645 80 62 7.0 14.0 0.00 0.73 0.73 66 1021.0
20210624192146 80 72 7.0 14.0 0.00 0.73 0.73 65 1021.0
20210624191644 80 47 7.0 14.0 0.00 0.73 0.73 65 1021.1
20210624191145 80 95 7.0 13.0 0.00 0.73 0.73 66 1021.2
20210624190640 80 23 6.0 14.0 0.00 0.73 0.73 68 1021.3
20210624190140 80 114 6.0 14.0 0.00 0.73 0.73 66 1021.4
20210624185639 80 295 6.0 14.0 0.00 0.73 0.73 67 1021.5
20210624185139 80 61 5.0 12.0 0.00 0.73 0.73 66 1021.6
20210624184643 80 64 5.0 11.0 0.00 0.73 0.73 66 1021.6
20210624184138 79 83 5.0 12.0 0.00 0.73 0.73 65 1021.8
20210624183638 79 89 5.0 12.0 0.00 0.73 0.73 65 1022.0
20210624183141 79 77 5.0 12.0 0.00 0.73 0.73 66 1022.0
20210624182638 79 39 5.0 12.0 0.00 0.73 0.73 65 1021.9
20210624182137 80 20 6.0 16.0 0.00 0.73 0.73 66 1021.9
20210624181636 79 77 7.0 16.0 0.00 0.73 0.73 66 1021.8
20210624181136 80 67 7.0 17.0 0.00 0.73 0.73 66 1021.7
20210624180636 79 104 7.0 17.0 0.00 0.73 0.73 66 1021.7
20210624180134 79 88 7.0 24.0 0.00 0.73 0.73 67 1021.5
20210624175634 79 106 7.0 24.0 0.00 0.73 0.73 67 1021.5
20210624175136 80 108 7.0 16.0 0.00 0.73 0.73 68 1021.4
20210624174635 80 83 7.0 16.0 0.00 0.73 0.73 67 1021.3
20210624174137 80 1 6.0 13.0 0.00 0.73 0.73 66 1021.3
20210624173635 80 16 7.0 13.0 0.00 0.73 0.73 69 1021.4
20210624173134 79 89 6.0 13.0 0.00 0.73 0.73 68 1021.5
20210624172632 78 39 6.0 13.0 0.00 0.73 0.73 70 1021.9
20210624172123 78 57 6.0 13.0 0.00 0.73 0.73 69 1021.9
20210624171623 79 94 5.0 11.0 0.00 0.73 0.73 70 1022.0
20210624171124 78 106 5.0 11.0 0.00 0.73 0.73 70 1022.2
20210624170623 77 102 5.0 11.0 0.00 0.73 0.73 71 1022.4
20210624170122 76 51 4.0 11.0 0.00 0.73 0.73 72 1022.4
20210624165621 76 60 4.0 9.0 0.00 0.73 0.73 73 1022.4
20210624165121 76 44 4.0 9.0 0.00 0.73 0.73 73 1022.5
20210624164619 76 52 4.0 9.0 0.00 0.73 0.73 73 1022.5
20210624164117 75 66 4.0 9.0 0.00 0.73 0.73 73 1022.5
20210624163618 75 56 4.0 8.0 0.00 0.73 0.73 74 1022.6
20210624163117 75 43 4.0 8.0 0.00 0.73 0.73 75 1022.7
20210624162629 75 56 2.0 7.0 0.00 0.73 0.73 76 1022.7
20210624162117 75 70 1.0 7.0 0.00 0.73 0.73 78 1022.8
20210624161630 75 79 1.0 6.0 0.00 0.73 0.73 80 1022.8
20210624161112 75 34 2.0 7.0 0.00 0.73 0.73 82 1022.7
20210624160611 74 83 2.0 7.0 0.00 0.73 0.73 82 1022.6
20210624160112 74 50 2.0 7.0 0.00 0.73 0.73 82 1022.4
20210624155610 73 110 3.0 8.0 0.00 0.73 0.73 82 1022.6
20210624155111 73 55 3.0 8.0 0.00 0.73 0.73 83 1022.6
20210624154622 73 120 2.0 5.0 0.00 0.73 0.73 83 1022.7
20210624154114 73 90 3.0 8.0 0.00 0.73 0.73 83 1022.7
20210624153611 73 45 3.0 8.0 0.00 0.73 0.73 83 1022.7
20210624153110 73 91 4.0 9.0 0.00 0.73 0.73 83 1022.7
20210624152610 73 71 4.0 9.0 0.00 0.73 0.73 83 1022.6
20210624152132 73 62 4.0 7.0 0.00 0.73 0.73 83 1022.7
20210624151921 73 101 5.0 11.0 0.00 0.73 0.73 83 1022.7
20210624151716 73 66 4.0 11.0 0.01 0.73 0.73 83 1022.7
20210624151501 73 60 3.0 8.0 0.01 0.73 0.73 83 1022.5
20210624151318 73 63 3.0 11.0 0.01 0.73 0.73 83 1022.4
20210624151119 73 75 4.0 11.0 0.02 0.73 0.73 83 1022.4
20210624150936 73 90 4.0 9.0 0.03 0.73 0.73 83 1022.4
20210624150801 73 44 3.0 8.0 0.04 0.73 0.73 83 1022.4
20210624132536 73 64 4.0 9.0 0.28 0.65 0.65 81 1022.4
20210624132036 73 56 4.0 10.0 0.31 0.59 0.59 80 1022.4
20210624131536 73 49 4.0 10.0 0.44 0.55 0.55 80 1022.2
20210624131036 73 31 3.0 6.0 0.50 0.53 0.53 80 1022.2
20210624130537 73 70 2.0 6.0 0.50 0.51 0.51 80 1022.2
20210624130052 73 95 2.0 6.0 0.49 0.49 0.49 79 1022.1
20210624125534 73 98 2.0 6.0 0.48 0.48 0.48 79 1022.1
20210624125033 73 152 2.0 6.0 0.46 0.46 0.46 78 1022.0
20210624124529 73 87 2.0 7.0 0.45 0.45 0.45 77 1021.9
20210624124027 73 75 2.0 7.0 0.43 0.43 0.43 77 1021.7
20210624123525 73 58 3.0 8.0 0.42 0.42 0.42 77 1021.7
20210624123024 73 35 4.0 9.0 0.39 0.39 0.39 76 1021.6
20210624122524 74 66 4.0 9.0 0.37 0.37 0.37 76 1021.5
20210624122030 74 60 4.0 8.0 0.28 0.28 0.28 76 1021.5
20210624121529 74 57 2.0 7.0 0.09 0.09 0.09 76 1021.5
20210624121023 74 82 2.0 6.0 0.03 0.03 0.03 76 1021.4
20210624120523 74 79 3.0 6.0 0.01 0.01 0.01 76 1021.4
20210624120035 74 19 3.0 8.0 0.00 0.00 0.00 76 1021.4
20210624115522 74 51 2.0 8.0 0.00 0.00 0.00 75 1021.4
20210624115022 74 94 2.0 7.0 0.00 0.00 0.00 76 1021.2
20210624114523 74 166 3.0 7.0 0.00 0.00 0.00 76 1021.0
20210624114021 74 93 4.0 9.0 0.00 0.00 0.00 76 1020.9
20210624113519 74 60 3.0 9.0 0.00 0.00 0.00 76 1020.8
20210624113018 74 44 3.0 6.0 0.00 0.00 0.00 76 1020.7
20210624112522 74 77 3.0 9.0 0.00 0.00 0.00 76 1020.6
20210624112020 74 90 4.0 9.0 0.00 0.00 0.00 76 1020.6
20210624111518 74 78 3.0 8.0 0.00 0.00 0.00 76 1020.5
20210624111015 75 43 3.0 9.0 0.00 0.00 0.00 76 1020.4
20210624110517 75 60 4.0 9.0 0.00 0.00 0.00 76 1020.4
20210624110016 75 43 4.0 10.0 0.00 0.00 0.00 76 1020.4
20210624105515 75 64 4.0 10.0 0.00 0.00 0.00 76 1020.4
20210624105012 75 113 3.0 7.0 0.00 0.00 0.00 76 1020.4
20210624104507 75 66 3.0 7.0 0.00 0.00 0.00 76 1020.3
20210624104013 75 83 3.0 5.0 0.00 0.00 0.00 77 1020.2
20210624103507 75 47 2.0 6.0 0.00 0.00 0.00 77 1020.2
20210624103008 75 50 2.0 6.0 0.00 0.00 0.00 77 1020.2
20210624102503 75 45 3.0 7.0 0.00 0.00 0.00 76 1020.1
20210624102004 75 105 2.0 7.0 0.00 0.00 0.00 76 1020.0
20210624101503 75 56 3.0 9.0 0.00 0.00 0.00 76 1019.9
20210624101000 75 83 3.0 9.0 0.00 0.00 0.00 77 1019.8
20210624100702 75 6 3.0 10.0 0.00 0.00 0.00 77 1019.6
20210624100002 75 39 4.0 10.0 0.00 0.00 0.00 77 1019.5
20210624095500 75 44 4.0 9.0 0.00 0.00 0.00 77 1019.4
20210624095001 75 102 4.0 8.0 0.00 0.00 0.00 77 1019.3
20210624094500 75 70 4.0 8.0 0.00 0.00 0.00 77 1019.3
20210624093958 75 97 4.0 11.0 0.00 0.00 0.00 77 1019.3
20210624093458 75 81 4.0 11.0 0.00 0.00 0.00 77 1019.4
20210624092959 75 49 3.0 6.0 0.00 0.00 0.00 77 1019.4
20210624092456 75 77 3.0 6.0 0.00 0.00 0.00 77 1019.4
20210624091956 75 51 4.0 9.0 0.00 0.00 0.00 77 1019.4
20210624091456 75 49 4.0 9.0 0.00 0.00 0.00 77 1019.5
20210624090954 75 59 4.0 9.0 0.00 0.00 0.00 77 1019.6
20210624090452 75 55 4.0 9.0 0.00 0.00 0.00 77 1019.5
20210624085954 75 67 4.0 10.0 0.00 0.00 0.00 77 1019.4
20210624085451 75 97 4.0 10.0 0.00 0.00 0.00 77 1019.4
20210624084952 75 91 3.0 8.0 0.00 0.00 0.00 77 1019.4
20210624084454 75 59 3.0 7.0 0.00 0.00 0.00 77 1019.3
20210624083952 75 58 3.0 8.0 0.00 0.00 0.00 77 1019.4
20210624083450 75 52 4.0 8.0 0.00 0.00 0.00 77 1019.3
20210624082952 75 29 3.0 9.0 0.00 0.00 0.00 77 1019.4
20210624082446 75 41 3.0 9.0 0.00 0.00 0.00 76 1019.3
20210624081945 75 53 3.0 8.0 0.00 0.00 0.00 77 1019.4
20210624081531 75 83 4.0 8.0 0.00 0.00 0.00 76 1019.5
20210624081324 75 73 3.0 7.0 0.00 0.00 0.00 76 1019.4
20210624081146 75 65 2.0 6.0 0.00 0.00 0.00 76 1019.4
20210624073944 76 81 2.0 6.0 0.00 0.00 0.00 75 1019.6
20210624073438 76 106 3.0 6.0 0.00 0.00 0.00 75 1019.5
20210624072939 76 77 3.0 5.0 0.00 0.00 0.00 75 1019.5
20210624072455 76 64 3.0 9.0 0.00 0.00 0.00 74 1019.5
20210624071934 76 74 3.0 9.0 0.00 0.00 0.00 74 1019.4
20210624071435 76 133 2.0 7.0 0.00 0.00 0.00 74 1019.4
20210624070932 76 101 2.0 7.0 0.00 0.00 0.00 73 1019.6
20210624070433 76 59 2.0 4.0 0.00 0.00 0.00 73 1019.7
20210624065938 76 101 2.0 6.0 0.00 0.00 0.00 73 1019.7
20210624065432 76 84 2.0 6.0 0.00 0.00 0.00 73 1019.7
20210624064932 76 21 1.0 4.0 0.00 0.00 0.00 72 1019.8